| time (UTC) | temp F | wind direction | speed knots | gust knots | rain 1hr in | rain 24hr in | rain mn in | humidity % | barometer mb |
| 20260507183026 | 72 | 284 | 1.7 | 7.0 | 0.00 | 0.00 | 0.00 | 36 | 1014.4 |
| 20260507182026 | 72 | 303 | 3.5 | 10.4 | 0.00 | 0.00 | 0.00 | 36 | 1014.4 |
| 20260507181027 | 71 | 320 | 1.7 | 8.7 | 0.00 | 0.00 | 0.00 | 39 | 1014.4 |
| 20260507180027 | 71 | 294 | 2.6 | 11.3 | 0.00 | 0.00 | 0.00 | 40 | 1014.5 |
| 20260507175026 | 70 | 304 | 4.3 | 10.4 | 0.00 | 0.00 | 0.00 | 41 | 1014.6 |
| 20260507174027 | 70 | 288 | 3.5 | 8.7 | 0.00 | 0.00 | 0.00 | 41 | 1014.6 |
| 20260507173027 | 70 | 302 | 2.6 | 7.8 | 0.00 | 0.00 | 0.00 | 41 | 1014.7 |
| 20260507172027 | 69 | 292 | 2.6 | 7.0 | 0.00 | 0.00 | 0.00 | 40 | 1014.7 |
| 20260507171027 | 68 | 264 | 3.5 | 7.0 | 0.00 | 0.00 | 0.00 | 43 | 1014.8 |
| 20260507170107 | 67 | 226 | 2.6 | 6.1 | 0.00 | 0.00 | 0.00 | 43 | 1015.0 |
| 20260507165047 | 67 | 289 | 3.5 | 7.8 | 0.00 | 0.00 | 0.00 | 44 | 1015.0 |
| 20260507164027 | 66 | 301 | 3.5 | 7.0 | 0.00 | 0.00 | 0.00 | 44 | 1015.1 |
| 20260507163028 | 66 | 278 | 2.6 | 7.0 | 0.00 | 0.00 | 0.00 | 45 | 1015.1 |
| 20260507162028 | 65 | 266 | 2.6 | 5.2 | 0.00 | 0.00 | 0.00 | 46 | 1015.1 |
| 20260507161028 | 65 | 230 | 1.7 | 4.3 | 0.00 | 0.00 | 0.00 | 48 | 1015.2 |
| 20260507160028 | 65 | 251 | 1.7 | 3.5 | 0.00 | 0.00 | 0.00 | 48 | 1015.3 |
| 20260507155048 | 63 | 239 | 2.6 | 5.2 | 0.00 | 0.00 | 0.00 | 49 | 1015.2 |
| 20260507154028 | 63 | 259 | 5.2 | 8.7 | 0.00 | 0.00 | 0.00 | 49 | 1015.1 |
| 20260507153028 | 63 | 247 | 4.3 | 7.0 | 0.00 | 0.00 | 0.00 | 49 | 1015.1 |
| 20260507152029 | 63 | 264 | 2.6 | 6.1 | 0.00 | 0.00 | 0.00 | 49 | 1015.1 |
| 20260507151029 | 62 | 273 | 3.5 | 8.7 | 0.00 | 0.00 | 0.00 | 51 | 1015.0 |
| 20260507150028 | 62 | 266 | 6.1 | 7.8 | 0.00 | 0.00 | 0.00 | 50 | 1014.9 |
| 20260507145028 | 61 | 253 | 5.2 | 7.8 | 0.00 | 0.00 | 0.00 | 53 | 1014.9 |
| 20260507144050 | 60 | 262 | 5.2 | 9.6 | 0.00 | 0.00 | 0.00 | 54 | 1014.9 |
| 20260507143034 | 58 | 260 | 4.3 | 7.0 | 0.00 | 0.00 | 0.00 | 57 | 1014.8 |
| 20260507142029 | 56 | 264 | 4.3 | 7.0 | 0.00 | 0.00 | 0.00 | 69 | 1014.7 |
| 20260507141030 | 55 | 202 | 0.0 | 1.7 | 0.00 | 0.00 | 0.00 | 78 | 1014.8 |
| 20260507140049 | 53 | 0.0 | 0.0 | 0.00 | 0.00 | 0.00 | 79 | 1014.7 | |
| 20260507135029 | 52 | 104 | 2.6 | 5.2 | 0.00 | 0.00 | 0.00 | 79 | 1014.7 |
| 20260507134030 | 50 | 98 | 0.0 | 2.6 | 0.00 | 0.00 | 0.00 | 83 | 1014.6 |
| 20260507133030 | 49 | 59 | 2.6 | 4.3 | 0.00 | 0.00 | 0.00 | 83 | 1014.4 |
| 20260507132030 | 48 | 66 | 0.9 | 3.5 | 0.00 | 0.00 | 0.00 | 84 | 1014.4 |
| 20260507131030 | 47 | 83 | 0.0 | 2.6 | 0.00 | 0.00 | 0.00 | 84 | 1014.4 |
| 20260507130030 | 47 | 90 | 0.9 | 3.5 | 0.00 | 0.00 | 0.00 | 84 | 1014.3 |
| 20260507125030 | 47 | 247 | 0.9 | 2.6 | 0.00 | 0.00 | 0.00 | 83 | 1014.1 |
| 20260507124030 | 47 | 253 | 1.7 | 3.5 | 0.00 | 0.00 | 0.00 | 83 | 1014.1 |
| 20260507123111 | 47 | 140 | 0.9 | 3.5 | 0.00 | 0.00 | 0.00 | 83 | 1014.1 |
| 20260507122030 | 48 | 68 | 0.0 | 1.7 | 0.00 | 0.00 | 0.00 | 83 | 1014.1 |
| 20260507121051 | 48 | 86 | 3.5 | 5.2 | 0.00 | 0.00 | 0.00 | 82 | 1014.1 |
| 20260507120111 | 48 | 91 | 0.9 | 3.5 | 0.00 | 0.00 | 0.00 | 81 | 1014.0 |
| 20260507115031 | 49 | 71 | 2.6 | 4.3 | 0.00 | 0.00 | 0.00 | 78 | 1014.0 |
| 20260507114031 | 49 | 55 | 0.0 | 0.9 | 0.00 | 0.00 | 0.00 | 77 | 1013.9 |
| 20260507113031 | 49 | 232 | 0.9 | 1.7 | 0.00 | 0.00 | 0.00 | 76 | 1013.8 |
| 20260507112032 | 49 | 216 | 0.0 | 0.9 | 0.00 | 0.00 | 0.00 | 76 | 1013.6 |
| 20260507111031 | 49 | 232 | 0.0 | 2.6 | 0.00 | 0.00 | 0.00 | 75 | 1013.6 |
| 20260507110031 | 50 | 108 | 0.0 | 2.6 | 0.00 | 0.00 | 0.00 | 73 | 1013.6 |
| 20260507105032 | 51 | 105 | 0.0 | 1.7 | 0.00 | 0.00 | 0.00 | 73 | 1013.6 |
| 20260507104052 | 52 | 99 | 0.0 | 0.9 | 0.00 | 0.00 | 0.00 | 72 | 1013.7 |
| 20260507103032 | 52 | 155 | 0.0 | 1.7 | 0.00 | 0.00 | 0.00 | 70 | 1013.8 |
| 20260507102032 | 53 | 212 | 0.0 | 1.7 | 0.00 | 0.00 | 0.00 | 68 | 1013.8 |
| 20260507101032 | 54 | 81 | 1.7 | 3.5 | 0.00 | 0.00 | 0.00 | 68 | 1013.7 |
| 20260507100032 | 55 | 210 | 0.0 | 1.7 | 0.00 | 0.00 | 0.00 | 65 | 1013.6 |
| 20260507095032 | 56 | 92 | 0.9 | 3.5 | 0.00 | 0.00 | 0.00 | 63 | 1013.6 |
| 20260507094052 | 58 | 63 | 1.7 | 4.3 | 0.00 | 0.00 | 0.00 | 59 | 1013.6 |
| 20260507093032 | 59 | 133 | 0.0 | 0.0 | 0.00 | 0.00 | 0.00 | 57 | 1013.6 |
| 20260507092033 | 61 | 256 | 2.6 | 4.3 | 0.00 | 0.00 | 0.00 | 55 | 1013.5 |
| 20260507091033 | 62 | 238 | 2.6 | 4.3 | 0.00 | 0.00 | 0.00 | 53 | 1013.5 |
| 20260507090033 | 62 | 210 | 2.6 | 6.1 | 0.00 | 0.00 | 0.00 | 52 | 1013.5 |
| 20260507085033 | 62 | 204 | 2.6 | 6.1 | 0.00 | 0.00 | 0.00 | 52 | 1013.4 |
| 20260507084033 | 61 | 211 | 1.7 | 4.3 | 0.00 | 0.00 | 0.00 | 52 | 1013.4 |
| 20260507083034 | 61 | 220 | 2.6 | 5.2 | 0.00 | 0.00 | 0.00 | 53 | 1013.4 |
| 20260507082033 | 61 | 205 | 1.7 | 3.5 | 0.00 | 0.00 | 0.00 | 52 | 1013.4 |
| 20260507081054 | 60 | 193 | 1.7 | 4.3 | 0.00 | 0.00 | 0.00 | 53 | 1013.4 |
| 20260507080034 | 61 | 159 | 3.5 | 4.3 | 0.00 | 0.00 | 0.00 | 53 | 1013.4 |
| 20260507075033 | 62 | 202 | 0.0 | 3.5 | 0.00 | 0.00 | 0.00 | 51 | 1013.4 |
| 20260507074034 | 63 | 198 | 0.9 | 3.5 | 0.00 | 0.00 | 0.00 | 50 | 1013.3 |
| 20260507073034 | 64 | 253 | 0.9 | 2.6 | 0.00 | 0.00 | 0.00 | 49 | 1013.4 |
| 20260507072034 | 64 | 242 | 0.0 | 2.6 | 0.00 | 0.00 | 0.00 | 48 | 1013.2 |
| 20260507071115 | 64 | 217 | 2.6 | 7.0 | 0.00 | 0.00 | 0.00 | 47 | 1013.1 |
| 20260507070054 | 64 | 213 | 1.7 | 3.5 | 0.00 | 0.00 | 0.00 | 47 | 1013.0 |
| 20260507065034 | 64 | 169 | 2.6 | 5.2 | 0.00 | 0.00 | 0.00 | 46 | 1013.0 |
| 20260507064055 | 65 | 154 | 0.9 | 3.5 | 0.00 | 0.00 | 0.00 | 44 | 1012.8 |
| 20260507063035 | 65 | 231 | 0.0 | 2.6 | 0.00 | 0.00 | 0.00 | 44 | 1012.5 |
| 20260507062035 | 65 | 245 | 2.6 | 4.3 | 0.00 | 0.00 | 0.00 | 44 | 1012.4 |
| 20260507061035 | 67 | 240 | 2.6 | 4.3 | 0.00 | 0.00 | 0.00 | 43 | 1012.5 |
| 20260507060036 | 68 | 284 | 0.0 | 2.6 | 0.00 | 0.00 | 0.00 | 40 | 1012.6 |
| 20260507055035 | 69 | 271 | 1.7 | 4.3 | 0.00 | 0.00 | 0.00 | 39 | 1012.6 |
| 20260507054035 | 69 | 229 | 4.3 | 8.7 | 0.00 | 0.00 | 0.00 | 38 | 1012.4 |
| 20260507053036 | 69 | 232 | 3.5 | 7.0 | 0.00 | 0.00 | 0.00 | 39 | 1012.5 |
| 20260507052035 | 69 | 212 | 1.7 | 4.3 | 0.00 | 0.00 | 0.00 | 39 | 1012.5 |
| 20260507051035 | 70 | 254 | 3.5 | 6.1 | 0.00 | 0.00 | 0.00 | 39 | 1012.3 |
| 20260507050056 | 70 | 248 | 6.1 | 9.6 | 0.00 | 0.00 | 0.00 | 39 | 1012.1 |
| 20260507045036 | 71 | 242 | 4.3 | 9.6 | 0.00 | 0.00 | 0.00 | 38 | 1012.1 |
| 20260507044036 | 71 | 241 | 5.2 | 7.0 | 0.00 | 0.00 | 0.00 | 39 | 1012.1 |
| 20260507043036 | 72 | 277 | 6.1 | 7.8 | 0.00 | 0.00 | 0.00 | 38 | 1012.0 |
| 20260507042037 | 73 | 261 | 7.0 | 10.4 | 0.00 | 0.00 | 0.00 | 36 | 1012.0 |
| 20260507041036 | 73 | 277 | 8.7 | 13.0 | 0.00 | 0.00 | 0.00 | 35 | 1011.8 |
| 20260507040036 | 72 | 283 | 8.7 | 12.2 | 0.00 | 0.00 | 0.00 | 35 | 1011.7 |
| 20260507035037 | 71 | 285 | 6.1 | 11.3 | 0.00 | 0.00 | 0.00 | 38 | 1011.6 |
| 20260507034038 | 72 | 266 | 3.5 | 5.2 | 0.00 | 0.00 | 0.00 | 39 | 1011.6 |
| 20260507033037 | 73 | 256 | 3.5 | 5.2 | 0.00 | 0.00 | 0.00 | 37 | 1011.5 |
| 20260507032057 | 74 | 237 | 2.6 | 5.2 | 0.00 | 0.00 | 0.00 | 36 | 1011.5 |
| 20260507031037 | 74 | 199 | 1.7 | 3.5 | 0.00 | 0.00 | 0.00 | 36 | 1011.5 |
| 20260507030037 | 74 | 220 | 1.7 | 4.3 | 0.00 | 0.00 | 0.00 | 36 | 1011.5 |
| 20260507025038 | 74 | 234 | 1.7 | 4.3 | 0.00 | 0.00 | 0.00 | 37 | 1011.4 |
| 20260507024038 | 75 | 301 | 2.6 | 5.2 | 0.00 | 0.00 | 0.00 | 36 | 1011.4 |
| 20260507023038 | 75 | 301 | 2.6 | 6.1 | 0.00 | 0.00 | 0.00 | 36 | 1011.3 |
| 20260507022038 | 76 | 306 | 5.2 | 8.7 | 0.00 | 0.00 | 0.00 | 35 | 1011.3 |
| 20260507021038 | 77 | 306 | 5.2 | 9.6 | 0.00 | 0.00 | 0.00 | 34 | 1011.2 |
| 20260507020038 | 77 | 304 | 8.7 | 13.0 | 0.00 | 0.00 | 0.00 | 34 | 1011.2 |
| 20260507015038 | 78 | 305 | 7.8 | 13.9 | 0.00 | 0.00 | 0.00 | 33 | 1011.2 |
| 20260507014039 | 78 | 303 | 8.7 | 15.6 | 0.00 | 0.00 | 0.00 | 33 | 1011.1 |
| 20260507013059 | 79 | 301 | 6.1 | 11.3 | 0.00 | 0.00 | 0.00 | 33 | 1011.2 |
| 20260507012038 | 79 | 293 | 10.4 | 17.4 | 0.00 | 0.00 | 0.00 | 32 | 1011.2 |
| 20260507011039 | 80 | 293 | 9.6 | 16.5 | 0.00 | 0.00 | 0.00 | 32 | 1011.1 |
| 20260507010038 | 81 | 292 | 13.9 | 18.2 | 0.00 | 0.00 | 0.00 | 31 | 1011.0 |
| 20260507005038 | 81 | 288 | 13.9 | 19.1 | 0.00 | 0.00 | 0.00 | 31 | 1010.8 |
| 20260507004059 | 82 | 294 | 11.3 | 21.7 | 0.00 | 0.00 | 0.00 | 32 | 1010.7 |
| 20260507003039 | 83 | 288 | 12.2 | 20.0 | 0.00 | 0.00 | 0.00 | 31 | 1010.5 |
| 20260507002039 | 84 | 280 | 13.0 | 20.0 | 0.00 | 0.00 | 0.00 | 31 | 1010.2 |
| 20260507001039 | 84 | 285 | 11.3 | 19.1 | 0.00 | 0.00 | 0.00 | 31 | 1010.0 |
| 20260507000039 | 85 | 292 | 10.4 | 16.5 | 0.00 | 0.00 | 0.00 | 31 | 1009.8 |
| 20260506235039 | 87 | 288 | 12.2 | 18.2 | 0.00 | 0.00 | 0.00 | 30 | 1009.6 |
| 20260506234040 | 88 | 275 | 4.3 | 7.8 | 0.00 | 0.00 | 0.00 | 31 | 1009.5 |
| 20260506233039 | 88 | 284 | 0.9 | 2.6 | 0.00 | 0.00 | 0.00 | 31 | 1009.5 |
| 20260506232040 | 88 | 300 | 3.5 | 8.7 | 0.00 | 0.00 | 0.00 | 31 | 1009.6 |
| 20260506231040 | 88 | 235 | 1.7 | 7.0 | 0.00 | 0.00 | 0.00 | 30 | 1009.7 |
| 20260506230040 | 88 | 322 | 0.9 | 4.3 | 0.00 | 0.00 | 0.00 | 31 | 1009.8 |
| 20260506225100 | 87 | 253 | 0.9 | 4.3 | 0.00 | 0.00 | 0.00 | 31 | 1009.9 |
| 20260506224040 | 86 | 76 | 0.9 | 5.2 | 0.00 | 0.00 | 0.00 | 32 | 1010.1 |
| 20260506223101 | 86 | 214 | 3.5 | 9.6 | 0.00 | 0.00 | 0.00 | 33 | 1010.2 |
| 20260506222040 | 87 | 226 | 2.6 | 7.0 | 0.00 | 0.00 | 0.00 | 35 | 1010.4 |
| 20260506221041 | 87 | 198 | 3.5 | 7.8 | 0.00 | 0.00 | 0.00 | 35 | 1010.4 |
| 20260506220041 | 87 | 172 | 1.7 | 9.6 | 0.00 | 0.00 | 0.00 | 34 | 1010.5 |
| 20260506215041 | 86 | 131 | 1.7 | 7.0 | 0.00 | 0.00 | 0.00 | 35 | 1010.7 |
| 20260506214041 | 85 | 158 | 6.1 | 12.2 | 0.00 | 0.00 | 0.00 | 34 | 1010.6 |
| 20260506213041 | 86 | 158 | 6.1 | 13.9 | 0.00 | 0.00 | 0.00 | 34 | 1010.7 |
| 20260506212101 | 85 | 175 | 7.0 | 10.4 | 0.00 | 0.00 | 0.00 | 34 | 1010.7 |
| 20260506211041 | 85 | 138 | 4.3 | 10.4 | 0.00 | 0.00 | 0.00 | 34 | 1010.7 |
| 20260506210041 | 85 | 178 | 4.3 | 10.4 | 0.00 | 0.00 | 0.00 | 34 | 1010.8 |
| 20260506205041 | 86 | 171 | 7.0 | 13.9 | 0.00 | 0.00 | 0.00 | 34 | 1010.8 |
| 20260506204042 | 85 | 177 | 7.8 | 14.8 | 0.00 | 0.00 | 0.00 | 34 | 1010.9 |
| 20260506203042 | 85 | 167 | 6.1 | 11.3 | 0.00 | 0.00 | 0.00 | 35 | 1010.9 |
| 20260506202042 | 85 | 166 | 7.8 | 14.8 | 0.00 | 0.00 | 0.00 | 34 | 1010.9 |
| 20260506201042 | 84 | 189 | 7.0 | 13.9 | 0.00 | 0.00 | 0.00 | 35 | 1011.0 |
| 20260506200042 | 83 | 129 | 5.2 | 10.4 | 0.00 | 0.00 | 0.00 | 36 | 1011.2 |
| 20260506195042 | 83 | 166 | 6.1 | 12.2 | 0.00 | 0.00 | 0.00 | 36 | 1011.3 |
| 20260506194043 | 83 | 174 | 7.0 | 12.2 | 0.00 | 0.00 | 0.00 | 37 | 1011.5 |
| 20260506193043 | 82 | 164 | 8.7 | 13.9 | 0.00 | 0.00 | 0.00 | 37 | 1011.6 |
| 20260506192042 | 82 | 166 | 7.0 | 11.3 | 0.00 | 0.00 | 0.00 | 38 | 1011.8 |
| 20260506191043 | 81 | 179 | 7.8 | 13.0 | 0.00 | 0.00 | 0.00 | 38 | 1011.8 |
| 20260506190043 | 80 | 165 | 7.0 | 12.2 | 0.00 | 0.00 | 0.00 | 40 | 1011.9 |
| 20260506185104 | 79 | 167 | 7.0 | 12.2 | 0.00 | 0.00 | 0.00 | 43 | 1011.9 |
| 20260506184043 | 79 | 171 | 7.0 | 13.0 | 0.00 | 0.00 | 0.00 | 43 | 1011.9 |